TimeEDT,TemperatureF,Dew PointF,Humidity,Sea Level PressureIn,VisibilityMPH,Wind Direction,Wind SpeedMPH,Gust SpeedMPH,PrecipitationIn,Events,Conditions,WindDirDegrees,DateUTC
12:51 AM,80.6,64.4,58,29.79,3.0,WNW,38.0,48.3,0.03,Rain,Light Rain,290,2013-07-20 04:51:00
12:53 AM,77.0,64.9,66,29.76,1.8,WNW,31.1,48.3,0.08,Rain,Heavy Rain,290,2013-07-20 04:53:00
1:03 AM,75.2,66.2,73,29.80,0.8,WSW,19.6,36.8,0.30,Rain,Heavy Rain,240,2013-07-20 05:03:00
1:08 AM,75.2,68.0,78,29.79,2.0,SW,16.1,26.5,0.32,Rain,Rain,220,2013-07-20 05:08:00
1:15 AM,75.2,69.8,83,29.79,5.0,SW,15.0,23.0,0.33,Rain,Rain,220,2013-07-20 05:15:00
1:53 AM,75.0,70.0,84,29.75,6.0,South,6.9,-,0.39,Rain,Rain,190,2013-07-20 05:53:00
2:53 AM,75.0,68.0,79,29.74,10.0,WSW,9.2,-,0.04,Rain,Light Rain,240,2013-07-20 06:53:00
3:53 AM,75.0,68.0,79,29.73,10.0,WNW,8.1,-,0.01,,Partly Cloudy,290,2013-07-20 07:53:00
4:53 AM,73.9,68.0,82,29.73,10.0,Calm,Calm,-,N/A,,Partly Cloudy,0,2013-07-20 08:53:00
5:53 AM,73.9,69.1,85,29.76,10.0,WSW,3.5,-,N/A,,Overcast,240,2013-07-20 09:53:00
6:53 AM,73.9,69.1,85,29.79,10.0,Calm,Calm,-,N/A,,Overcast,0,2013-07-20 10:53:00
7:53 AM,75.0,70.0,84,29.81,10.0,NW,4.6,-,N/A,,Overcast,320,2013-07-20 11:53:00
8:13 AM,75.2,69.8,83,29.84,10.0,North,4.6,-,N/A,,Overcast,10,2013-07-20 12:13:00
8:22 AM,75.2,69.8,83,29.84,10.0,NNE,5.8,-,N/A,,Overcast,20,2013-07-20 12:22:00
8:44 AM,75.2,68.0,78,29.84,10.0,NNE,10.4,-,N/A,,Overcast,30,2013-07-20 12:44:00
8:53 AM,75.0,68.0,79,29.83,10.0,NE,9.2,-,N/A,,Overcast,40,2013-07-20 12:53:00
9:53 AM,77.0,66.9,71,29.84,10.0,Variable,3.5,-,N/A,,Overcast,0,2013-07-20 13:53:00
10:53 AM,81.0,68.0,65,29.84,10.0,Calm,Calm,-,N/A,,Scattered Clouds,0,2013-07-20 14:53:00
11:53 AM,82.9,64.9,54,29.84,10.0,NNW,3.5,-,N/A,,Partly Cloudy,330,2013-07-20 15:53:00
12:53 PM,84.0,64.9,53,29.83,10.0,West,3.5,-,N/A,,Clear,280,2013-07-20 16:53:00
1:53 PM,87.1,64.9,48,29.84,10.0,North,5.8,-,N/A,,Partly Cloudy,350,2013-07-20 17:53:00
2:53 PM,88.0,64.0,45,29.83,10.0,NW,8.1,-,N/A,,Partly Cloudy,320,2013-07-20 18:53:00
3:53 PM,88.0,61.0,40,29.82,10.0,NW,6.9,-,N/A,,Clear,320,2013-07-20 19:53:00
4:53 PM,88.0,61.0,40,29.83,10.0,NW,10.4,-,N/A,,Clear,320,2013-07-20 20:53:00
5:53 PM,88.0,61.0,40,29.83,10.0,NW,11.5,-,N/A,,Clear,320,2013-07-20 21:53:00
6:53 PM,87.1,60.1,40,29.83,10.0,NNW,6.9,-,N/A,,Clear,330,2013-07-20 22:53:00
7:53 PM,82.9,60.1,46,29.85,10.0,North,10.4,-,N/A,,Clear,360,2013-07-20 23:53:00
8:53 PM,79.0,62.1,56,29.86,10.0,North,9.2,-,N/A,,Clear,350,2013-07-21 00:53:00
9:53 PM,75.9,63.0,64,29.89,10.0,NNW,4.6,-,N/A,,Clear,340,2013-07-21 01:53:00
10:53 PM,73.0,63.0,71,29.91,10.0,Calm,Calm,-,N/A,,Clear,0,2013-07-21 02:53:00
11:53 PM,72.0,64.0,76,29.92,10.0,NNW,3.5,-,N/A,,Mostly Cloudy,340,2013-07-21 03:53:00